| time (UTC) | temp C | wind direction | speed KPH | gust KPH | rain 1hr cm | rain 24hr cm | rain mn cm | humidity % | barometer mb |
| 20260505100905 | 6 | 68 | 3.2 | 3.2 | 0.00 | 0.00 | 0.00 | 99 | 1020.3 |
| 20260505095905 | 6 | 80 | 1.6 | 4.8 | 0.00 | 0.00 | 0.00 | 99 | 1020.2 |
| 20260505093905 | 6 | 63 | 3.2 | 4.8 | 0.00 | 0.00 | 0.00 | 99 | 1020.3 |
| 20260505092905 | 6 | 57 | 3.2 | 4.8 | 0.00 | 0.00 | 0.00 | 99 | 1020.4 |
| 20260505090905 | 6 | 58 | 3.2 | 4.8 | 0.00 | 0.00 | 0.00 | 99 | 1020.6 |
| 20260505085904 | 6 | 68 | 3.2 | 4.8 | 0.00 | 0.00 | 0.00 | 99 | 1020.7 |
| 20260505083906 | 6 | 71 | 3.2 | 4.8 | 0.00 | 0.00 | 0.00 | 98 | 1020.9 |
| 20260505082905 | 6 | 68 | 3.2 | 4.8 | 0.00 | 0.00 | 0.00 | 98 | 1021.0 |
| 20260505081905 | 6 | 66 | 3.2 | 4.8 | 0.00 | 0.00 | 0.00 | 98 | 1021.1 |
| 20260505080905 | 6 | 57 | 3.2 | 4.8 | 0.00 | 0.00 | 0.00 | 98 | 1021.0 |
| 20260505074905 | 7 | 60 | 3.2 | 4.8 | 0.00 | 0.00 | 0.00 | 98 | 1021.5 |
| 20260505073904 | 7 | 63 | 3.2 | 4.8 | 0.00 | 0.00 | 0.00 | 98 | 1021.4 |
| 20260505072905 | 7 | 70 | 3.2 | 4.8 | 0.00 | 0.00 | 0.00 | 98 | 1021.5 |
| 20260505071905 | 7 | 70 | 3.2 | 4.8 | 0.00 | 0.00 | 0.00 | 97 | 1021.6 |
| 20260505070905 | 6 | 62 | 3.2 | 8.0 | 0.00 | 0.00 | 0.00 | 97 | 1021.7 |
| 20260505065908 | 6 | 67 | 3.2 | 4.8 | 0.00 | 0.00 | 0.00 | 97 | 1021.6 |
| 20260505064905 | 6 | 40 | 3.2 | 8.0 | 0.00 | 0.00 | 0.00 | 96 | 1021.6 |
| 20260505063906 | 6 | 62 | 3.2 | 8.0 | 0.00 | 0.00 | 0.00 | 96 | 1021.7 |
| 20260505061905 | 7 | 69 | 3.2 | 4.8 | 0.00 | 0.00 | 0.00 | 94 | 1021.5 |
| 20260505060904 | 7 | 40 | 3.2 | 4.8 | 0.00 | 0.00 | 0.00 | 93 | 1021.4 |
| 20260505055905 | 7 | 56 | 3.2 | 8.0 | 0.00 | 0.00 | 0.00 | 93 | 1021.7 |
| 20260505054905 | 7 | 57 | 4.8 | 4.8 | 0.00 | 0.00 | 0.00 | 92 | 1021.6 |
| 20260505053905 | 8 | 57 | 3.2 | 8.0 | 0.00 | 0.00 | 0.00 | 91 | 1021.7 |
| 20260505052906 | 8 | 55 | 3.2 | 8.0 | 0.00 | 0.00 | 0.00 | 91 | 1021.6 |
| 20260505051905 | 9 | 81 | 3.2 | 3.2 | 0.00 | 0.00 | 0.00 | 89 | 1021.8 |
| 20260505050904 | 9 | 56 | 3.2 | 8.0 | 0.00 | 0.00 | 0.00 | 89 | 1021.8 |
| 20260505034904 | 11 | 46 | 1.6 | 8.0 | 0.00 | 0.00 | 0.00 | 82 | 1022.2 |
| 20260505033905 | 12 | 37 | 3.2 | 8.0 | 0.00 | 0.00 | 0.00 | 81 | 1022.0 |
| 20260505032905 | 12 | 60 | 3.2 | 8.0 | 0.00 | 0.00 | 0.00 | 81 | 1022.2 |
| 20260505031904 | 12 | 49 | 4.8 | 4.8 | 0.00 | 0.00 | 0.00 | 80 | 1022.2 |
| 20260505030904 | 12 | 73 | 1.6 | 8.0 | 0.00 | 0.00 | 0.00 | 79 | 1022.4 |
| 20260505025905 | 12 | 83 | 1.6 | 8.0 | 0.00 | 0.00 | 0.00 | 80 | 1022.4 |
| 20260505024905 | 12 | 52 | 1.6 | 8.0 | 0.00 | 0.00 | 0.00 | 82 | 1022.5 |
| 20260505023905 | 11 | 41 | 4.8 | 8.0 | 0.00 | 0.00 | 0.00 | 83 | 1022.6 |
| 20260505022905 | 11 | 55 | 4.8 | 8.0 | 0.00 | 0.00 | 0.00 | 83 | 1022.4 |
| 20260505021905 | 12 | 64 | 3.2 | 4.8 | 0.00 | 0.00 | 0.00 | 81 | 1022.7 |
| 20260505020905 | 12 | 60 | 3.2 | 8.0 | 0.00 | 0.00 | 0.00 | 79 | 1022.9 |
| 20260505014905 | 12 | 47 | 3.2 | 4.8 | 0.00 | 0.00 | 0.00 | 82 | 1022.8 |
| 20260505013905 | 12 | 77 | 1.6 | 8.0 | 0.00 | 0.00 | 0.00 | 80 | 1022.8 |
| 20260505012904 | 12 | 63 | 3.2 | 8.0 | 0.00 | 0.00 | 0.00 | 77 | 1023.1 |
| 20260505011744 | 12 | 39 | 4.8 | 0.0 | 0.00 | 0.00 | 0.00 | 76 | 1023.4 |
| 20260505010311 | 12 | 64 | 3.2 | 4.8 | 0.00 | 0.00 | 0.00 | 77 | 1023.6 |
| 20260505003904 | 11 | 61 | 3.2 | 4.8 | 0.00 | 0.00 | 0.00 | 80 | 1024.0 |
| 20260505002905 | 11 | 63 | 3.2 | 4.8 | 0.00 | 0.00 | 0.00 | 78 | 1024.3 |
| 20260505001905 | 11 | 57 | 3.2 | 4.8 | 0.00 | 0.00 | 0.00 | 77 | 1024.5 |
| 20260505000905 | 11 | 62 | 3.2 | 4.8 | 0.00 | 0.00 | 0.00 | 76 | 1024.4 |
| 20260504235905 | 10 | 75 | 1.6 | 4.8 | 0.00 | 0.00 | 0.00 | 83 | 1025.0 |
| 20260504232905 | 9 | 66 | 1.6 | 3.2 | 0.00 | 0.00 | 0.00 | 91 | 1025.5 |
| 20260504231906 | 8 | 80 | 1.6 | 3.2 | 0.00 | 0.00 | 0.00 | 98 | 1025.3 |
| 20260504230905 | 8 | 64 | 0.0 | 4.8 | 0.00 | 0.00 | 0.00 | 99 | 1025.6 |
| 20260504225906 | 8 | 79 | 1.6 | 3.2 | 0.00 | 0.00 | 0.00 | 99 | 1025.6 |
| 20260504224906 | 8 | 77 | 1.6 | 3.2 | 0.00 | 0.00 | 0.00 | 99 | 1025.7 |
| 20260504222905 | 8 | 74 | 3.2 | 3.2 | 0.00 | 0.00 | 0.00 | 99 | 1025.8 |
| 20260504221905 | 7 | 76 | 1.6 | 3.2 | 0.00 | 0.00 | 0.00 | 99 | 1025.8 |
| 20260504220905 | 7 | 79 | 1.6 | 3.2 | 0.00 | 0.00 | 0.00 | 99 | 1025.9 |
| 20260504214905 | 7 | 76 | 1.6 | 3.2 | 0.00 | 0.00 | 0.00 | 99 | 1026.2 |
| 20260504213905 | 7 | 83 | 1.6 | 3.2 | 0.00 | 0.00 | 0.00 | 97 | 1026.2 |
| 20260504212905 | 6 | 77 | 3.2 | 3.2 | 0.00 | 0.00 | 0.00 | 97 | 1026.2 |
| 20260504211904 | 5 | 72 | 1.6 | 3.2 | 0.00 | 0.00 | 0.00 | 97 | 1026.4 |
| 20260504210905 | 3 | 80 | 3.2 | 3.2 | 0.00 | 0.00 | 0.00 | 98 | 1026.3 |
| 20260504203905 | 1 | 82 | 3.2 | 3.2 | 0.00 | 0.00 | 0.00 | 99 | 1026.6 |
| 20260504202912 | 1 | 80 | 3.2 | 4.8 | 0.00 | 0.00 | 0.00 | 99 | 1026.4 |
| 20260504201905 | 1 | 77 | 3.2 | 3.2 | 0.00 | 0.00 | 0.00 | 99 | 1026.3 |
| 20260504200904 | 1 | 72 | 3.2 | 4.8 | 0.00 | 0.00 | 0.00 | 99 | 1026.3 |
| 20260504194905 | 1 | 75 | 3.2 | 4.8 | 0.00 | 0.00 | 0.00 | 99 | 1026.3 |
| 20260504193905 | 1 | 79 | 3.2 | 3.2 | 0.00 | 0.00 | 0.00 | 99 | 1026.4 |
| 20260504192905 | 1 | 77 | 3.2 | 3.2 | 0.00 | 0.00 | 0.00 | 99 | 1026.5 |
| 20260504191905 | 1 | 73 | 3.2 | 3.2 | 0.00 | 0.00 | 0.00 | 99 | 1026.3 |
| 20260504190906 | 1 | 69 | 3.2 | 3.2 | 0.00 | 0.00 | 0.00 | 99 | 1026.4 |
| 20260504185905 | 1 | 69 | 3.2 | 4.8 | 0.00 | 0.00 | 0.00 | 99 | 1026.4 |
| 20260504184904 | 1 | 64 | 3.2 | 4.8 | 0.00 | 0.00 | 0.00 | 99 | 1026.2 |
| 20260504183905 | 1 | 76 | 1.6 | 4.8 | 0.00 | 0.00 | 0.00 | 99 | 1026.3 |
| 20260504182905 | 1 | 77 | 3.2 | 3.2 | 0.00 | 0.00 | 0.00 | 99 | 1026.4 |
| 20260504181905 | 2 | 80 | 3.2 | 3.2 | 0.00 | 0.00 | 0.00 | 99 | 1026.5 |
| 20260504180912 | 2 | 77 | 3.2 | 3.2 | 0.00 | 0.00 | 0.00 | 99 | 1026.4 |
| 20260504175905 | 2 | 86 | 1.6 | 3.2 | 0.00 | 0.00 | 0.00 | 99 | 1026.3 |
| 20260504174905 | 2 | 78 | 1.6 | 3.2 | 0.00 | 0.00 | 0.00 | 99 | 1026.5 |
| 20260504173905 | 2 | 89 | 3.2 | 3.2 | 0.00 | 0.00 | 0.00 | 99 | 1026.1 |
| 20260504172909 | 2 | 68 | 3.2 | 3.2 | 0.00 | 0.00 | 0.00 | 99 | 1026.3 |
| 20260504170906 | 2 | 80 | 3.2 | 4.8 | 0.00 | 0.00 | 0.00 | 99 | 1026.3 |
| 20260504150905 | 2 | 71 | 3.2 | 3.2 | 0.00 | 0.00 | 0.00 | 99 | 1027.0 |
| 20260504140907 | 3 | 71 | 3.2 | 3.2 | 0.00 | 0.00 | 0.00 | 99 | 1027.3 |